Weather History for HECA - October, 2011

Change the Weather History Date:

Monday, October 3, 2011

  Actual Average Record
Temperature  
Mean Temperature 78 °F -  
Max Temperature 86 °F 82 °F - ()
Min Temperature 70 °F 63 °F - ()
Cooling Degree Days 13    
Growing Degree Days 28 (Base 50)    
Moisture  
Dew Point 59 °F    
Average Humidity 53    
Maximum Humidity 73    
Minimum Humidity 26    
Precipitation  
Precipitation 0.00 in 0.00 in - ()
Sea Level Pressure  
Sea Level Pressure 29.99 in    
Wind  
Wind Speed 6 mph ()    
Max Wind Speed 18 mph    
Max Gust Speed -    
Visibility 5.8 miles    
Events      
T = Trace of Precipitation, MM = Missing Value Source: Averaged Metar Reports

Daily Weather History Graph

Daily Weather History Graph

Search for Another Location

Airport or City:

Trip Planner

Search our weather history database for the weather conditions in past years. The results will help you decide how hot, cold, wet, or windy it might be!

Date:

Astronomy

Oct. 03, 2011 Rise Set
Actual Time 5:48 AM EET 5:38 PM EET
Civil Twilight 5:24 AM EET 6:01 PM EET
Nautical Twilight 4:56 AM EET 6:29 PM EET
Astronomical Twilight 4:29 AM EET 6:57 PM EET
Moon 12:07 PM EET (10/3) 10:41 PM EET (10/3)
Length of Visible Light 12h 37m
Length of Day
11h 49m
Waxing Crescent, 42% of the Moon is Illuminated
Oct 3
Waxing Crescent
Oct 4
First Quarter
Oct 12
Full
Oct 20
Last Quarter
Oct 26
New

Hourly Weather History & Observations

Time (EET) Temp. Heat Index Dew Point Humidity Pressure Visibility Wind Dir Wind Speed Gust Speed Precip Events Conditions
12:00 AM 75.2 °F - 60.8 °F 61% 29.98 in - North 6.9 mph - N/A   Clear
12:30 AM 73.4 °F - 60.8 °F 65% 29.98 in - North 5.8 mph - N/A   Clear
1:00 AM 73.4 °F - 59.0 °F 61% 29.98 in - NE 3.5 mph - N/A   Clear
1:30 AM 73.4 °F - 59.0 °F 61% 29.98 in - ENE 2.3 mph - N/A   Clear
2:00 AM 72 °F - 59 °F 55% 29.99 in 6 mi East 3.5 mph - -  
2:00 AM 71.6 °F - 59.0 °F 64% 29.98 in - East 3.5 mph - N/A   Clear
2:30 AM 71.6 °F - 60.8 °F 69% 29.98 in - East 3.5 mph - N/A   Clear
3:00 AM 71.6 °F - 60.8 °F 69% 29.98 in - Calm Calm - N/A   Clear
3:30 AM 71.6 °F - 60.8 °F 69% 29.98 in - Calm Calm - N/A   Clear
4:00 AM 71.6 °F - 59.0 °F 64% 29.98 in - NE 3.5 mph - N/A   Clear
4:30 AM 69.8 °F - 59.0 °F 68% 29.98 in - ENE 2.3 mph - N/A   Clear
5:00 AM 69.8 °F - 59.0 °F 68% 29.98 in - East 3.5 mph - N/A   Clear
5:30 AM 69.8 °F - 59.0 °F 68% 29.98 in - East 3.5 mph - N/A   Clear
6:00 AM 69.8 °F - 59.0 °F 68% 29.98 in 3.7 mi Calm Calm - N/A   Unknown
6:30 AM 69.8 °F - 60.8 °F 73% 30.01 in 3.7 mi Calm Calm - N/A   Unknown
7:30 AM 75.2 °F - 62.6 °F 65% 30.01 in 3.7 mi NNW 2.3 mph - N/A   Unknown
8:00 AM 76 °F - 61 °F 50% 30.02 in 6 mi NNW 2.3 mph - -  
8:00 AM 77.0 °F - 60.8 °F 57% 30.01 in - NNW 2.3 mph - N/A   Clear
8:30 AM 77.0 °F - 60.8 °F 57% 30.01 in - NW 3.5 mph - N/A   Clear
9:00 AM 77.0 °F - 60.8 °F 57% 30.04 in - NNW 5.8 mph - N/A   Clear
9:30 AM 78.8 °F - 59.0 °F 51% 30.01 in - North 3.5 mph - N/A   Clear
10:00 AM 78.8 °F - 53.6 °F 42% 30.01 in 6.2 mi NNW 3.5 mph - N/A   Partly Cloudy
10:30 AM 80.6 °F 80.8 °F 57.2 °F 45% 30.01 in 6.2 mi West 5.8 mph - N/A   Partly Cloudy
11:00 AM 82.4 °F 81.7 °F 55.4 °F 39% 30.01 in 6.2 mi NW 6.9 mph - N/A   Partly Cloudy
11:30 AM 80.6 °F 80.8 °F 57.2 °F 45% 30.01 in 6.2 mi NW 6.9 mph - N/A   Partly Cloudy
12:00 PM 82.4 °F 82.5 °F 59.0 °F 45% 29.98 in 6.2 mi North 6.9 mph - N/A   Scattered Clouds
12:30 PM 84.2 °F 83.5 °F 57.2 °F 40% 29.98 in 6.2 mi NW 6.9 mph - N/A   Scattered Clouds
1:00 PM 84.2 °F 83.5 °F 57.2 °F 40% 29.98 in 6.2 mi North 5.8 mph - N/A   Scattered Clouds
1:30 PM 86.0 °F 84.9 °F 57.2 °F 37% 29.98 in 6.2 mi NW 12.7 mph - N/A   Scattered Clouds
2:00 PM 86 °F - 56 °F 26% 29.96 in 6 mi North 13.8 mph - -   Partly Cloudy
2:00 PM 86.0 °F 84.9 °F 57.2 °F 37% 29.95 in 6.2 mi North 13.8 mph - N/A   Scattered Clouds
2:30 PM 86.0 °F 84.9 °F 57.2 °F 37% 29.95 in 6.2 mi North 5.8 mph - N/A   Partly Cloudy
3:00 PM 84.2 °F 82.8 °F 53.6 °F 35% 29.95 in 6.2 mi NW 9.2 mph - N/A   Partly Cloudy
3:30 PM 84.2 °F 82.8 °F 53.6 °F 35% 29.95 in 6.2 mi NW 6.9 mph - N/A   Partly Cloudy
4:00 PM 84.2 °F 82.8 °F 53.6 °F 35% 29.95 in 6.2 mi North 6.9 mph - N/A   Partly Cloudy
4:30 PM 84.2 °F 82.8 °F 53.6 °F 35% 29.95 in 6.2 mi NNW 9.2 mph - N/A   Partly Cloudy
5:00 PM 84.2 °F 83.0 °F 55.4 °F 37% 29.95 in - NNW 12.7 mph - N/A   Clear
5:30 PM 82.4 °F 82.5 °F 59.0 °F 45% 29.95 in - North 13.8 mph - N/A   Clear
6:00 PM 82.4 °F 82.5 °F 59.0 °F 45% 29.98 in - NNW 15.0 mph - N/A   Clear
6:30 PM 80.6 °F 81.1 °F 59.0 °F 48% 29.98 in - NNW 18.4 mph - N/A   Clear
7:00 PM 80.6 °F 81.5 °F 60.8 °F 51% 30.01 in - North 16.1 mph - N/A   Clear
7:30 PM 78.8 °F - 60.8 °F 54% 30.01 in - North 18.4 mph - N/A   Clear
8:00 PM 78 °F - 60 °F 44% 30.03 in 6 mi North 16.1 mph - -  
8:00 PM 78.8 °F - 60.8 °F 54% 30.01 in - North 16.1 mph - N/A   Clear
8:30 PM 77.0 °F - 59.0 °F 54% 30.04 in - North 13.8 mph - N/A   Clear
9:30 PM 77.0 °F - 60.8 °F 57% 30.04 in - North 11.5 mph - N/A   Clear
10:00 PM 75.2 °F - 62.6 °F 65% 30.04 in - North 10.4 mph - N/A   Clear
10:30 PM 75.2 °F - 62.6 °F 65% 30.04 in - North 10.4 mph - N/A   Clear
11:00 PM 75.2 °F - 62.6 °F 65% 30.04 in - North 9.2 mph - N/A   Clear
11:30 PM 75.2 °F - 62.6 °F 65% 30.04 in - North 9.2 mph - N/A   Clear